Location: Autingues
(50.8400°N, 1.9737°E)
Time: 20:05:20
(UTC+00:00)

Cosmos 1763 Rocket - Pass Details

Date: 15 May 2026
Orbit: 728 x 773 km, 74.0° (Epoch: 7 June)

Event Time Altitude Azimuth Distance (km) Brightness Sun altitude
Exits shadow 21:10:51 15° 160° (SSE) 1,975 5.0 -12.0°
Maximum altitude 21:14:32 34° 103° (ESE) 1,258 4.2 -12.4°
Drops below altitude 10° 21:19:14 10° 39° (NE) 2,321 6.2 -12.8°
Sets 21:21:47 0° 31° (NNE) 3,247 7.1 -13.1°
